Location: Newark
(34.0635°N, 86.7609°W)
Time: 23:12:46
(UTC+00:00)

N. Korean satellite - Pass Details

Date: 17 December 2019
Orbit: 454 x 507 km, 97.2° (Epoch: 21 January)

Event Time Altitude Azimuth Distance (km) Brightness Sun altitude
Rises 23:33:49 0° 194° (SSW) 2,593 10.8 -11.0°
Reaches altitude 10° 23:36:11 10° 208° (SSW) 1,709 10.1 -11.5°
Maximum altitude 23:39:13 24° 263° (W) 1,074 9.3 -12.0°
Drops below altitude 10° 23:42:15 10° 319° (NW) 1,704 9.6 -12.6°
Sets 23:44:37 0° 334° (NNW) 2,582 10.3 -13.1°
